Track COSMOS 2517 (GEO-IK) now! 10-day predictions COSMOS 2517 (GEO-IK) is classified as:
1 41579U 16034A 25345.15101392 .00000032 00000-0 65851-4 0 9995 2 41579 99.1926 352.4768 0001003 86.9910 273.1360 13.85907645481582